Probability
77 74 81 77 52 52 52 48 48 55 52 52 35 39 45 42 42 32 87 81 87 87 74 65 71 74 77 77 74 77 77 68 71 74 68 58 52 48 42 35 23 23 16
84 81 84 74 48 45 39 52 48 61 55 55 42 45 42 39 39 39 42 71 84 90 84 74 65 68 65 71 68 68 65 71 71 68 61 58 52 39 26 23 23 19 16
87 74 71 61 45 45 45 42 48 45 52 39 48 42 39 29 29 39 35 55 68 77 77 81 77 74 58 58 61 61 65 81 77 68 61 65 55 48 45 39 35 29 26
84 90 65 55 58 52 45 52 35 39 29 29 42 26 26 55 42 42 26 39 45 35 58 68 68 65 65 58 48 52 61 74 71 68 74 68 65 52 58 52 42 32 23
81 71 61 68 65 55 45 32 39 23 32 19 19 26 23 23 39 26 26 23 23 23 26 68 65 68 55 58 52 52 61 61 68 65 61 55 58 58 58 52 48 45 35
81 68 65 65 65 48 48 45 48 42 32 32 0 6 10 10 19 29 6 13 16 13 16 23 55 52 55 55 58 52 52 58 71 71 61 58 55 61 65 52 45 48 39
68 65 55 71 58 48 48 39 29 35 35 29 13 19 6 3 13 19 13 6 3 10 23 19 19 29 52 42 48 55 42 42 61 65 71 68 65 71 68 48 42 35 29
65 52 65 58 55 55 52 48 39 35 19 26 16 16 16 16 10 0 13 13 3 6 13 16 23 26 23 23 16 39 45 42 45 55 65 68 65 71 61 48 45 29 23
55 55 61 55 61 39 45 45 42 39 23 13 10 16 10 19 16 6 0 6 13 6 6 13 13 10 10 19 29 19 42 45 45 35 52 61 61 61 45 48 39 35 29
55 55 61 61 48 35 48 35 35 35 35 19 16 16 6 10 3 6 6 3 3 10 10 0 3 10 6 13 23 0 23 35 39 35 42 48 52 55 39 39 35 35 29
58 61 61 58 52 35 39 39 35 35 29 19 16 10 6 3 3 6 10 3 0 0 6 10 10 3 6 3 16 3 0 3 3 19 32 39 45 42 39 29 23 26 26
65 58 58 61 58 45 45 48 42 39 35 23 29 16 13 6 6 3 3 6 0 0 3 10 6 0 3 3 6 0 0 0 0 0 3 10 23 29 35 26 23 23 23
61 65 52 65 55 55 48 45 45 32 32 39 32 23 13 10 3 0 0 0 0 0 0 0 3 0 0 6 10 3 3 0 0 0 0 0 0 6 16 23 19 13 13
52 55 58 55 52 45 35 45 39 42 39 39 23 32 26 10 0 3 0 6 0 0 0 3 0 0 0 0 0 0 6 0 0 0 0 0 0 0 0 3 3 3 10
45 45 58 61 45 42 35 42 42 39 29 32 32 39 26 19 6 0 3 3 3 3 3 3 0 3 3 13 0 6 13 0 0 0 0 0 0 0 0 0 0 0 0
48 48 55 48 42 39 35 42 39 39 35 29 35 29 39 19 16 10 10 10 10 6 6 0 10 3 10 0 3 6 6 0 0 0 0 0 0 0 0 0 0 0 0
55 48 58 55 48 42 42 39 32 26 32 32 26 19 29 26 19 16 10 10 6 10 6 3 10 3 6 13 3 3 3 10 3 0 0 0 0 0 0 0 0 0 0
61 52 55 52 45 35 39 35 29 26 26 26 23 19 13 23 29 19 16 6 10 3 6 13 10 6 13 13 13 16 3 0 3 0 0 0 0 0 0 0 0 0 0
48 52 55 48 45 42 35 32 26 19 19 19 23 19 16 13 23 23 19 6 10 3 13 16 16 16 6 6 3 3 3 10 0 0 0 0 0 0 0 0 0 0 0
52 55 55 45 45 39 35 29 26 23 23 23 23 19 16 16 23 23 19 23 16 19 23 23 10 10 13 3 10 3 0 10 3 0 0 0 0 0 0 0 0 0 0
42 48 45 39 42 35 29 32 35 19 29 19 19 23 19 6 0 3 0 13 16 13 19 16 16 10 6 13 3 3 3 6 10 3 6 6 6 6 0 0 0 0 0
39 42 35 29 26 13 0 0 19 35 26 23 23 23 13 3 0 0 0 0 0 0 6 13 13 13 10 6 13 6 13 13 13 10 13 10 6 10 6 3 0 0 0
48 48 35 32 26 19 0 0 0 13 23 19 23 23 6 0 0 3 0 0 0 0 0 0 0 3 6 13 6 10 13 13 10 13 10 6 3 6 6 0 0 0 0
45 42 39 29 23 16 0 0 0 3 13 16 16 13 19 16 6 6 6 3 3 3 0 0 0 0 0 3 3 6 13 13 13 10 0 3 6 3 0 3 0 0 0
39 35 35 29 23 16 0 0 0 3 6 10 10 3 6 6 0 0 0 3 3 3 0 0 0 0 0 0 0 0 0 0 0 0 0 3 0 3 6 6 3 0 0
29 26 19 19 16 10 0 0 0 3 10 10 6 6 0 0 0 0 0 3 3 3 3 3 0 0 0 0 0 0 0 0 0 0 0 0 0 0 0 0 3 0 0
Height
5894 5895 5895 5896 5897 5897 5897 5897 5898 5898 5897 5897 5897 5897 5897 5897 5897 5897 5897 5897 5898 5898 5898 5899 5899 5899 5900 5900 5901 5902 5903 5904 5904 5905 5906 5906 5906 5907 5907 5908 5908 5909 5909
5893 5894 5895 5896 5896 5897 5897 5898 5898 5898 5898 5897 5897 5897 5897 5897 5897 5897 5897 5897 5897 5898 5898 5898 5899 5899 5899 5900 5900 5901 5902 5903 5903 5904 5905 5905 5906 5906 5907 5907 5907 5908 5908
5892 5893 5895 5895 5896 5897 5897 5897 5898 5898 5898 5898 5897 5897 5897 5897 5897 5897 5897 5897 5897 5898 5898 5898 5898 5898 5898 5899 5899 5900 5901 5901 5902 5903 5903 5904 5905 5905 5906 5906 5906 5906 5907
5891 5892 5894 5895 5896 5897 5897 5898 5898 5898 5898 5898 5898 5898 5898 5897 5898 5898 5898 5898 5898 5897 5897 5898 5898 5898 5898 5898 5899 5899 5900 5900 5901 5901 5902 5903 5903 5904 5904 5905 5905 5905 5905
5889 5891 5893 5894 5895 5896 5897 5898 5898 5898 5898 5898 5898 5898 5898 5898 5898 5898 5898 5898 5898 5898 5897 5897 5897 5897 5898 5898 5898 5898 5899 5899 5900 5900 5900 5901 5902 5902 5903 5903 5903 5904 5904
5888 5890 5892 5893 5895 5896 5897 5897 5898 5898 5898 5898 5898 5898 5898 5898 5898 5898 5898 5898 5898 5898 5898 5898 5897 5897 5897 5898 5898 5898 5898 5898 5899 5899 5899 5900 5900 5901 5901 5901 5901 5902 5902
5887 5889 5891 5893 5894 5895 5896 5897 5898 5898 5898 5898 5899 5899 5899 5898 5899 5899 5899 5899 5899 5898 5898 5898 5898 5898 5897 5897 5897 5898 5898 5898 5898 5898 5898 5898 5899 5899 5899 5899 5899 5900 5900
5885 5888 5890 5891 5893 5894 5895 5896 5897 5898 5898 5898 5899 5899 5899 5899 5899 5899 5899 5899 5899 5899 5898 5898 5898 5897 5897 5897 5897 5897 5897 5897 5897 5897 5897 5897 5897 5897 5897 5897 5897 5897 5898
5884 5886 5888 5890 5892 5893 5894 5895 5896 5897 5898 5898 5898 5899 5899 5899 5899 5899 5899 5899 5899 5899 5898 5898 5898 5897 5897 5897 5897 5896 5897 5897 5896 5896 5896 5896 5896 5896 5896 5896 5895 5895 5895
5882 5884 5886 5888 5890 5892 5893 5894 5895 5896 5897 5897 5898 5898 5898 5898 5898 5899 5899 5898 5898 5898 5898 5898 5897 5897 5897 5896 5896 5896 5896 5896 5895 5895 5895 5894 5894 5894 5894 5893 5893 5893 5892
5880 5882 5884 5886 5888 5890 5891 5893 5894 5895 5896 5896 5897 5897 5897 5897 5898 5898 5898 5898 5898 5898 5898 5897 5897 5897 5896 5896 5895 5895 5895 5894 5894 5893 5893 5893 5892 5892 5891 5891 5891 5890 5889
5878 5880 5882 5884 5886 5888 5889 5891 5892 5893 5894 5895 5896 5896 5896 5897 5897 5897 5897 5897 5897 5897 5897 5896 5896 5896 5895 5895 5894 5894 5893 5893 5892 5892 5891 5891 5890 5890 5889 5888 5888 5887 5886
5876 5878 5880 5882 5884 5886 5887 5888 5890 5891 5892 5893 5894 5894 5895 5895 5895 5895 5896 5895 5895 5895 5895 5895 5894 5894 5893 5893 5893 5892 5891 5891 5890 5889 5889 5888 5887 5886 5886 5885 5884 5883 5883
5873 5875 5877 5879 5881 5883 5885 5886 5887 5888 5889 5890 5891 5892 5892 5893 5893 5893 5893 5893 5893 5893 5893 5893 5892 5892 5891 5890 5890 5889 5889 5888 5887 5887 5886 5885 5884 5883 5882 5881 5880 5879 5878
5871 5872 5875 5877 5879 5880 5882 5883 5884 5886 5887 5887 5888 5889 5889 5890 5890 5890 5890 5890 5891 5890 5890 5890 5889 5889 5888 5887 5887 5886 5885 5885 5884 5883 5882 5881 5880 5879 5878 5877 5876 5875 5874
5868 5870 5872 5874 5875 5877 5878 5880 5881 5882 5883 5884 5885 5885 5886 5886 5886 5886 5887 5886 5886 5886 5886 5886 5885 5885 5884 5883 5883 5882 5881 5880 5879 5878 5877 5876 5875 5874 5873 5872 5870 5869 5868
5865 5867 5868 5870 5872 5873 5874 5876 5877 5878 5879 5879 5880 5881 5881 5881 5882 5882 5882 5882 5882 5882 5881 5881 5880 5880 5879 5878 5878 5877 5876 5875 5874 5873 5871 5870 5869 5868 5867 5865 5864 5863 5861
5861 5863 5864 5866 5867 5869 5870 5871 5872 5873 5874 5875 5875 5876 5876 5876 5876 5877 5877 5877 5877 5876 5876 5875 5875 5874 5873 5873 5872 5871 5870 5868 5867 5866 5865 5864 5862 5861 5860 5858 5857 5855 5854
5858 5859 5860 5861 5863 5864 5865 5866 5867 5868 5869 5869 5870 5870 5870 5870 5871 5871 5871 5871 5871 5870 5870 5869 5868 5868 5867 5866 5865 5864 5863 5861 5860 5859 5858 5856 5855 5853 5852 5850 5848 5847 5845
5854 5855 5856 5857 5858 5859 5860 5861 5862 5862 5863 5863 5863 5864 5864 5864 5864 5864 5864 5864 5864 5864 5863 5862 5862 5861 5860 5859 5858 5857 5855 5854 5852 5851 5849 5848 5846 5845 5843 5841 5839 5838 5836
5851 5851 5851 5852 5853 5854 5854 5855 5856 5856 5856 5857 5857 5857 5857 5857 5857 5857 5857 5857 5857 5857 5856 5855 5854 5853 5852 5851 5850 5848 5847 5845 5843 5842 5840 5838 5836 5835 5833 5830 5829 5827 5825
5846 5846 5846 5847 5847 5848 5849 5849 5850 5850 5850 5850 5850 5850 5850 5850 5850 5850 5850 5850 5850 5849 5849 5848 5846 5845 5844 5842 5841 5839 5838 5836 5834 5832 5830 5828 5825 5823 5821 5819 5817 5815 5813
5841 5841 5841 5841 5842 5842 5843 5843 5843 5844 5844 5844 5844 5843 5843 5843 5843 5843 5843 5842 5842 5841 5840 5839 5838 5836 5835 5833 5832 5830 5828 5826 5823 5821 5819 5817 5814 5811 5808 5806 5804 5802 5800
5836 5836 5836 5836 5836 5836 5837 5837 5837 5837 5837 5837 5836 5836 5836 5836 5835 5835 5835 5834 5833 5832 5831 5830 5829 5827 5825 5823 5821 5819 5817 5815 5812 5810 5807 5805 5802 5799 5796 5793 5791 5788 5786
5830 5830 5830 5830 5830 5830 5830 5831 5831 5830 5830 5829 5829 5829 5828 5828 5828 5827 5826 5825 5824 5822 5821 5819 5818 5816 5814 5812 5810 5808 5805 5803 5800 5798 5795 5792 5789 5786 5783 5780 5777 5774 5771
5824 5824 5824 5824 5824 5824 5824 5824 5824 5823 5823 5822 5822 5821 5820 5820 5819 5818 5817 5815 5814 5812 5811 5809 5807 5805 5803 5801 5799 5796 5793 5790 5787 5784 5782 5779 5775 5772 5769 5766 5762 5758 5755
Wind_Speed
9 8 6 4 3 3 3 3 2 2 2 3 2 1 1 1 1 1 2 2 3 3 3 4 4 5 5 5 6 6 6 7 7 7 6 6 6 6 5 5 5 5 5
10 8 7 5 4 3 3 2 2 2 2 2 2 1 1 1 1 1 1 1 1 3 3 4 4 4 5 5 5 6 7 7 8 7 7 7 7 7 6 6 6 6 6
11 10 8 6 5 4 3 2 2 2 2 2 2 2 2 2 1 1 1 1 1 1 2 2 3 3 4 5 5 6 6 7 7 8 8 7 7 7 7 7 7 7 7
12 11 9 7 6 5 4 3 3 2 2 2 2 2 2 2 2 2 2 2 1 1 1 1 1 2 2 3 4 5 6 6 7 7 7 7 7 7 8 8 8 7 7
13 12 10 8 7 6 5 3 3 2 2 2 2 2 3 3 3 2 2 2 2 2 1 1 0 0 1 2 3 4 4 5 5 6 6 7 7 8 8 8 8 8 8
14 13 11 10 8 7 5 4 3 2 2 2 2 2 3 3 2 2 2 2 2 2 2 1 1 1 1 1 2 2 3 4 4 5 6 6 7 8 9 9 10 9 10
15 13 12 11 10 8 7 5 4 3 3 2 2 2 2 2 2 1 1 1 1 2 2 1 1 1 1 1 2 2 3 3 4 5 6 6 7 7 8 9 9 10 10
15 14 12 11 11 9 8 6 5 4 3 3 3 2 2 1 1 1 1 1 1 0 1 2 2 2 1 2 1 2 2 3 5 5 6 6 7 7 8 8 9 10 10
16 15 13 13 12 10 9 8 6 5 4 4 4 3 2 2 1 1 2 2 1 1 1 2 2 2 2 2 2 2 3 3 4 5 6 6 6 7 8 9 10 10 11
17 16 15 14 13 11 10 9 8 7 6 6 5 5 4 3 2 2 2 2 2 2 2 3 3 3 3 4 3 4 4 5 5 6 7 7 7 8 9 10 10 11 12
17 17 16 15 14 13 12 11 9 8 7 7 7 6 6 5 4 4 4 3 3 3 3 4 4 4 4 5 5 5 6 6 7 7 8 9 9 10 10 11 11 12 13
18 17 17 16 15 15 13 12 11 10 9 9 9 8 7 7 7 6 6 5 5 5 5 5 5 6 6 6 7 7 8 8 9 9 10 10 11 12 12 13 13 13 14
18 18 18 17 17 16 15 14 13 12 12 11 11 10 10 9 9 9 8 8 8 8 7 8 8 8 8 9 9 9 10 10 11 11 12 12 13 13 14 15 15 16 16
18 17 17 18 17 17 16 16 15 14 14 13 13 13 12 12 12 11 11 11 11 11 11 11 11 11 11 11 12 12 12 13 13 14 14 15 15 16 16 17 18 18 19
18 18 18 18 18 18 18 17 16 16 16 15 15 15 15 15 15 15 14 14 14 13 13 13 14 13 13 14 14 15 15 15 16 17 17 17 18 19 20 20 21 21 22
17 18 19 19 19 20 20 19 18 18 18 18 18 17 17 17 17 17 17 17 17 17 17 17 17 17 17 17 17 18 18 19 19 19 20 20 21 22 22 23 23 24 25
17 18 19 20 20 19 20 21 20 20 19 19 19 19 19 20 19 20 20 20 20 20 21 20 20 20 21 21 21 22 22 22 22 23 23 24 24 25 25 26 27 27 27
17 18 19 20 20 20 19 20 21 22 21 21 21 21 21 20 21 21 22 22 22 22 23 24 24 23 24 24 24 25 25 25 26 26 26 27 27 28 29 29 29 30 30
17 18 19 19 20 21 22 22 23 23 23 23 22 23 23 23 23 24 24 24 24 24 25 25 26 26 26 27 27 27 28 28 29 29 30 30 31 32 32 32 33 33 33
17 18 19 19 20 22 23 24 24 24 25 24 24 24 24 25 25 25 25 25 26 26 27 27 28 29 29 30 30 31 31 31 32 33 33 34 35 35 36 36 37 37 37
17 19 20 21 21 22 23 24 24 25 25 26 26 26 25 25 26 27 27 27 28 28 29 29 30 31 31 31 32 33 34 35 36 36 37 38 38 38 39 39 40 40 41
19 19 20 21 21 22 23 24 25 25 26 27 27 27 27 27 27 28 28 29 30 30 31 31 31 33 34 34 35 36 37 38 38 38 39 40 41 42 43 43 43 43 44
19 21 20 21 22 23 23 24 25 26 27 27 28 28 28 28 28 29 30 30 31 32 32 33 34 35 36 36 37 38 38 39 40 42 42 43 44 45 46 47 47 47 47
21 21 21 21 23 23 23 24 25 25 25 26 27 27 27 28 29 30 31 32 34 34 34 36 37 38 40 40 41 41 42 43 44 45 46 46 47 46 46 47 47 48 49
23 22 22 22 22 22 22 24 25 26 26 27 27 27 29 30 31 31 33 34 34 35 36 38 39 40 42 42 42 42 43 44 45 46 47 47 47 47 48 49 50 51 52
23 23 23 23 22 23 23 24 26 28 28 28 28 29 30 32 33 34 35 36 37 37 37 39 39 40 41 42 43 44 46 46 47 47 48 48 49 50 51 52 52 53 54
Wind_Direction
197 194 187 177 163 144 134 123 109 95 91 101 105 113 139 156 182 195 211 207 211 216 221 225 227 227 222 221 227 229 232 228 223 223 224 227 227 226 228 231 235 239 241
203 197 190 184 174 162 150 132 117 112 104 100 104 114 126 155 165 181 201 191 210 214 221 230 235 234 229 228 233 236 237 237 235 232 235 235 235 234 237 241 242 246 247
207 201 194 189 181 175 161 147 127 113 105 100 105 114 120 128 146 146 129 138 163 187 212 234 251 249 238 235 238 240 241 238 240 237 239 241 245 247 246 247 250 252 253
210 205 200 195 188 179 169 158 137 124 115 107 109 112 121 129 140 131 119 120 125 141 174 231 258 258 257 249 245 245 245 244 243 238 238 241 247 256 253 252 254 255 258
206 204 200 196 193 187 180 170 150 135 122 113 113 117 124 124 122 116 109 112 108 93 90 87 39 309 279 260 249 242 246 253 254 253 249 251 255 261 260 258 258 258 263
201 203 203 200 196 191 184 177 168 150 139 124 119 125 126 122 119 116 112 104 92 83 71 64 58 24 341 286 258 245 256 259 262 267 263 260 263 267 266 261 261 262 265
200 203 204 201 198 194 192 190 181 168 153 143 137 136 138 135 132 126 127 120 94 77 56 46 36 7 356 324 281 266 269 267 266 277 274 268 267 272 271 269 269 268 269
204 205 206 202 199 198 199 198 194 188 178 169 163 162 159 160 172 176 163 150 129 73 34 22 7 348 343 347 326 297 284 279 280 283 281 276 271 274 276 276 275 273 274
207 206 205 203 201 201 203 203 201 200 199 195 195 198 206 215 224 230 223 222 238 283 306 330 335 330 316 310 308 299 297 292 291 292 291 290 285 283 280 281 279 277 275
209 208 205 205 204 205 207 208 208 206 210 213 215 215 217 222 229 226 230 236 248 271 290 302 307 307 306 303 299 299 298 292 290 290 288 292 293 292 290 286 282 281 279
211 211 208 208 208 210 211 212 214 217 222 225 226 225 227 231 236 237 237 244 255 267 279 288 290 293 297 298 299 298 297 296 293 290 290 291 293 293 293 290 288 287 285
213 213 211 212 212 213 214 216 218 222 227 230 232 233 236 238 241 243 246 252 261 268 273 278 281 286 289 292 296 297 295 296 296 294 293 292 293 293 292 290 290 289 287
214 216 216 217 217 218 220 221 224 227 229 233 235 239 242 244 246 250 254 259 264 268 271 276 279 282 285 286 289 290 292 294 295 294 293 293 293 293 292 289 289 289 288
218 221 221 224 224 224 225 227 229 232 234 236 240 243 245 247 250 254 258 262 267 270 273 275 276 277 280 282 284 286 287 288 289 291 292 291 291 291 291 291 290 289 288
223 226 228 229 228 230 231 232 234 237 240 242 244 246 248 251 252 255 258 262 266 270 272 274 276 276 277 279 280 282 284 285 286 288 289 289 288 287 288 288 288 287 287
227 229 231 233 235 236 236 237 238 242 245 246 248 249 252 255 256 257 258 261 264 267 269 272 275 276 277 279 281 282 283 283 284 286 287 287 287 287 287 287 287 286 286
231 234 235 237 239 242 243 243 243 247 250 252 252 253 255 256 257 260 261 262 265 267 269 272 275 277 278 279 280 280 282 282 283 285 286 287 287 287 287 287 287 286 285
233 236 239 240 241 243 245 246 249 251 252 253 254 256 258 258 259 261 262 264 266 267 270 273 275 276 277 279 280 281 282 283 284 285 286 287 287 287 287 287 286 286 285
240 241 242 243 244 246 248 249 253 254 254 255 255 256 258 260 262 263 264 265 267 269 271 274 274 275 276 278 279 281 281 282 284 284 285 286 286 286 286 285 285 284 284
245 246 246 247 247 248 249 251 254 257 256 257 258 258 260 263 263 263 264 266 268 271 272 273 273 274 275 277 278 279 281 282 284 284 285 285 285 285 286 286 285 284 283
251 251 251 250 251 251 252 253 254 255 256 258 261 261 261 262 263 263 265 266 268 271 272 272 272 273 275 277 278 279 281 282 283 284 285 285 285 286 285 285 284 283 283
254 256 257 253 253 254 255 256 257 258 258 260 262 263 262 262 263 265 266 267 269 271 272 273 273 275 277 279 280 281 282 282 283 285 285 286 286 286 285 284 284 283 283
258 257 258 257 256 257 258 259 259 262 262 263 264 265 264 263 263 264 267 269 270 271 271 273 275 276 278 280 282 282 282 282 284 286 286 286 287 286 285 284 284 283 284
258 259 260 259 258 260 262 264 265 264 263 264 265 265 265 265 266 266 267 268 270 271 272 273 275 276 277 279 281 281 281 282 283 284 285 285 285 285 284 284 285 285 285
260 260 259 259 261 262 263 265 267 267 268 268 268 268 269 268 268 269 269 270 271 271 272 274 276 277 278 280 281 282 283 285 285 285 284 284 284 285 285 285 285 285 285
261 260 261 260 261 263 265 267 268 269 270 270 271 272 272 272 272 273 272 272 273 273 274 276 277 279 280 281 282 283 285 285 286 286 285 284 284 285 286 286 287 286 286